Flag for Taiwan Weather past 2 weeks in Taichung, Taiwan

Now
75 °F

Partly sunny.


Feels Like: 75 °F
Forecast: 77 / 82 °F
Wind: 3 mph from East

Location: Chiang Kai Shek

Current Time: May 26, 2015 at 12:43:21 PM

Latest Report: May 26, 2015 at 12:00 PM


Visibility: 5 mi

Pressure: 29.86 "Hg

Humidity: 89%

Dew point: 72 °F

Location of TaichungLocation

Historic Weather in Taichung — Graph

°F

Taichung temperature yesterday

Maximum temperature yesterday: 77 °F (at 10:30 AM)
Minimum temperature yesterday: 73 °F (at 12:00 AM)
Average temperature yesterday: 75 °F

Past Weeks' High & Low Weather Summary

 TemperatureHumidityPressure
High91 °F (May 18, 12:00 PM)100% (May 15, 3:30 AM)29.95 "Hg (May 15, 3:30 AM)
Low68 °F (May 12, 8:30 AM)40% (May 12, 8:30 PM)29.68 "Hg (May 19, 2:30 PM)
Average78 °F82%29.81 "Hg
* Reported May 11 11:00 AM — May 26 11:30 AM, Taichung, Weather by CustomWeather, © 2015

Note: Actual official high and low records may vary slightly from our data, if they occured in-between our weather recording intervals... More about our weather records

Advertising

Taichung weather history for previous 24 hours

 ConditionsComfort  
Time TempWeatherWind HumidityBarometerVisibility
11:30 AM
Tue, May 26
75 °FLight rain. Partly sunny.3 mph89%29.86 "Hg4 mi
11:00 AM77 °FBroken clouds.2 mph83%29.86 "Hg4 mi
10:46 AM77 °FBroken clouds.2 mph83%29.86 "Hg4 mi
10:30 AM75 °FPartly sunny.1 mph89%29.86 "Hg4 mi
10:00 AM75 °FPartly sunny.2 mph89%29.86 "Hg5 mi
9:30 AM75 °FPartly sunny.3 mph83%29.89 "Hg5 mi
9:00 AM75 °FPartly sunny.3 mph83%29.89 "Hg5 mi
8:30 AM75 °FPartly sunny.3 mph89%29.89 "Hg4 mi
8:00 AM75 °FLight rain. Partly sunny.3 mph83%29.86 "Hg6 mi
7:30 AM75 °FLight rain. Partly sunny.3 mph89%29.86 "Hg6 mi
7:00 AM73 °FPartly sunny.5 mph89%29.86 "HgN/A
6:30 AM73 °FPartly sunny.3 mph89%29.86 "HgN/A
6:00 AM73 °FPartly sunny.2 mph89%29.83 "HgN/A
5:00 AM72 °FPassing clouds.1 mph94%29.83 "HgN/A
4:30 AM72 °FPartly cloudy.5 mph94%29.83 "HgN/A
4:00 AM73 °FPassing clouds.3 mph89%29.83 "HgN/A
3:30 AM72 °FPassing clouds.3 mph94%29.83 "HgN/A
3:00 AM72 °FPartly cloudy.5 mph94%29.83 "HgN/A
2:30 AM72 °FPassing clouds.1 mph94%29.83 "Hg6 mi
2:00 AM72 °FPassing clouds.2 mph94%29.83 "Hg6 mi
1:30 AM73 °FPassing clouds.2 mph89%29.83 "Hg6 mi
1:00 AM73 °FPassing clouds.2 mph89%29.83 "Hg6 mi
12:30 AM73 °FPassing clouds.2 mph89%29.83 "HgN/A
12:00 AM73 °FPartly cloudy.3 mph89%29.86 "HgN/A
11:30 PM
Mon, May 25
73 °FPassing clouds.5 mph89%29.86 "HgN/A
11:00 PM73 °FPartly cloudy.3 mph94%29.86 "Hg6 mi
10:30 PM73 °FPartly cloudy.3 mph89%29.86 "HgN/A
10:00 PM73 °FPassing clouds.6 mph89%29.86 "HgN/A
9:30 PM73 °FPassing clouds.6 mph94%29.83 "HgN/A
9:00 PM73 °FPassing clouds.5 mph94%29.83 "HgN/A
8:30 PM73 °FPassing clouds.6 mph89%29.83 "HgN/A
8:00 PM73 °FPassing clouds.7 mph94%29.83 "HgN/A
7:30 PM73 °FPartly cloudy.6 mph94%29.80 "HgN/A
7:00 PM75 °FPassing clouds.8 mph83%29.80 "HgN/A
6:30 PM75 °FPartly sunny.12 mph83%29.80 "HgN/A
6:00 PM75 °FPartly sunny.10 mph83%29.80 "HgN/A
5:30 PM75 °FPartly sunny.8 mph89%29.77 "HgN/A
5:00 PM75 °FLight rain. Partly sunny.9 mph89%29.77 "HgN/A
4:30 PM77 °FLight rain. Partly sunny.6 mph83%29.77 "HgN/A
4:00 PM77 °FScattered showers. Partly sunny.10 mph83%29.77 "HgN/A
3:30 PM77 °FPartly sunny.12 mph83%29.77 "HgN/A
3:00 PM77 °FBroken clouds.9 mph83%29.77 "HgN/A
2:30 PM77 °FBroken clouds.13 mph83%29.77 "HgN/A
2:00 PM77 °FPartly sunny.10 mph83%29.77 "HgN/A
1:30 PM75 °FPartly sunny.9 mph89%29.77 "HgN/A
1:00 PM75 °FPartly sunny.14 mph89%29.77 "HgN/A
12:30 PM77 °FBroken clouds.12 mph83%29.77 "HgN/A
12:00 PM77 °FBroken clouds.13 mph83%29.77 "HgN/A
Weather by CustomWeather, © 2015

See weather overviewHow to use our weather pages